Preview of NWS' New Version of Forecast
This preview is not operational and should not be used for support decisions.

Regional Weather Roundup (RWR)

Issued by National Weather Service (NWS)

                            
000
ASUS45 KBOU 161810
RWRCO 

WEATHER ROUNDUP FOR COLORADO
NATIONAL WEATHER SERVICE DENVER/BOULDER CO
1200 PM MDT SUN JUN 16 2019

NOTE: "FAIR" INDICATES FEW OR NO CLOUDS BELOW 12000 FEET WITH NO
SIGNIFICANT WEATHER AND/OR OBSTRUCTIONS TO VISIBILITY.

COZ001>005-013-030-031-161900-
...NORTHWEST COLORADO...
  
CITY           SKY/WX    TMP DP  RH WIND       PRES   REMARKS
CRAIG          FAIR      75  43  31 MISG      30.08F                  
HAYDEN         FAIR      69  40  34 VRB5      30.12F                  
MEEKER         FAIR      75  33  21 W13G20    30.09F                  
RANGELY        FAIR      78  33  19 W7        30.03S                  
RABBIT EARS PA NOT AVBL                                               
STEAMBOAT SPGS FAIR      67  48  50 SW5       30.12S                  
WALDEN         FAIR      63  39  42 CALM      30.20F                  
$$

COZ006>008-011-161900-
...WEST CENTRAL VALLEYS...
  
CITY           SKY/WX    TMP DP  RH WIND       PRES   REMARKS
GRAND JUNCTION FAIR      80  41  24 VRB3      29.99F                  
MONTROSE       FAIR      79  41  25 VRB6      30.05F                  
EAGLE          FAIR      70  41  34 CALM      30.12F                  
RIFLE          FAIR      77  42  28 CALM      30.03F                  
DELTA          FAIR      81  37  20 SE5       30.02F                  
NUCLA          FAIR      77  36  22 S5        30.10F                  
$$

COZ017>023-064>068-161900-
...SOUTHWEST COLORADO...
  
CITY           SKY/WX    TMP DP  RH WIND       PRES   REMARKS
DURANGO        PTSUNNY   73  41  31 W5        30.13F                  
CORTEZ         PTSUNNY   77  45  32 VRB6      30.09F                  
PAGOSA SPRINGS FAIR      72  35  26 SW8       30.19F                  
TELLURIDE      PTSUNNY   64  32  29 SW7       30.29F                  
WOLF CREEK PAS FAIR      52  32  46 S8        30.50S                  
$$

COZ009-010-012-014-032>034-037-058>063-161900-
...CENTRAL COLORADO...
  
CITY           SKY/WX    TMP DP  RH WIND       PRES   REMARKS
ASPEN          FAIR      71  37  28 N9        30.15F                  
BUENA VISTA    FAIR      69  35  28 S5        30.18F                  
COPPER MTN     CLOUDY    48  32  53 W9        30.45F                  
BERTHOUD PASS  PTSUNNY   43  34  70 NW16      30.47S                  
COTTONWOOD PAS PTSUNNY   64  32  29 CALM      30.31F                  
GUNNISON       FAIR      66  39  37 VRB3      30.19F                  
GRANBY         CLOUDY    62  40  44 SW3       30.22S                  
KREMMLING      FAIR      68  41  37 SW7       30.16F                  
LEADVILLE      PTSUNNY   59  31  34 W9        30.29F                  
MONARCH PASS   FAIR      55  32  41 MISG      30.56S                  
SALIDA         FAIR      74  36  25 CALM      30.22F                  
SUNLIGHT       PTSUNNY   50  36  57 NW3       30.40R THUNDER          
WILKERSON PASS FAIR      54  32  43 W3        30.43S                  
$$

COZ069>075-161900-
...SAN LUIS VALLEY/SANGRE DE CRISTO MOUNTAINS...
  
CITY           SKY/WX    TMP DP  RH WIND       PRES   REMARKS
ALAMOSA        FAIR      68  37  32 E6        30.18F                  
DEL NORTE      FAIR      67  41  39 E6        30.21F                  
LA VETA PASS   NOT AVBL                                               
SAGUACHE       FAIR      68  39  34 CALM      30.20F                  
$$

COZ035-036-038>040-161900-
...NORTHERN COLORADO FRONT RANGE...
  
CITY           SKY/WX    TMP DP  RH WIND       PRES   REMARKS
DENVER INTL AP FAIR      77  45  32 VRB3      30.04F                  
AURORA         MOSUNNY   75  45  33 NW5       30.05F                  
FRONT RANGE AP MOSUNNY   77  45  31 S3        30.05F                  
ERIE MUNI ARPT NOT AVBL                                               
BOULDER MUN AP FAIR      72  46  40 CALM      30.05S                  
CENTENNIAL     FAIR      74  45  35 VRB5      30.05F                  
BROOMFIELD     MOSUNNY   72  48  43 N6        30.07F                  
FORT COLLINS     N/A     74  50  42 CALM      30.04F                  
LONGMONT       FAIR      76  49  37 E3        30.05F HAZE             
$$

COZ041-046-047-076>085-087-088-161900-
...PIKES PEAK/PALMER DIVIDE AND SOUTHERN FOOTHILLS...
  
CITY           SKY/WX    TMP DP  RH WIND       PRES   REMARKS
COLO. SPRINGS  FAIR      71  46  40 SE18G28   30.12S                  
A. F. ACADEMY  FAIR      72  45  37 SE15      30.10S                  
SCHRIEVER AFB  NOT AVBL                                               
CHEYENNE MTN   NOT AVBL                                               
ELLICOTT       NOT AVBL                                               
FALCON         FAIR      69  43  38 S15G25    30.17R                  
FORT CARSON    NOT AVBL                                               
LIMON          FAIR      73  49  42 S20G28    30.07S                  
MONUMENT HILL  FAIR      70  43  37 S16G23    30.15F                  
CANON CITY     FAIR      81  46  30 SE13G20   30.05S                  
WALSENBURG     NOT AVBL                                               
TRINIDAD       FAIR      75  47  36 SE13G18   30.11F                  
$$

COZ042>045-048>051-090-091-161900-
...NORTHEAST COLORADO...
  
CITY           SKY/WX    TMP DP  RH WIND       PRES   REMARKS
GREELEY ARPT   FAIR      75  48  38 E8        30.03F                  
AKRON          FAIR      79  51  37 S8        30.01F                  
BURLINGTON     FAIR      80  50  34 S12G18    30.03S                  
WRAY           FAIR      82  48  30 SW10      29.98F                  
YUMA           LGT RAIN  73  21  14 S9        30.00S                  
STERLING       FAIR      77  54  44 NW7       29.99S                  
HOLYOKE        FAIR      81  52  36 S8        29.99F                  
FORT MORGAN    FAIR      76  47  36 S3        30.03S                  
$$

COZ086-089-092>099-161900-
...SOUTHEAST COLORADO...
  
CITY           SKY/WX    TMP DP  RH WIND       PRES   REMARKS
PUEBLO         FAIR      77  50  38 SE10      30.04F                  
LA JUNTA       FAIR      77  53  43 SE9       30.04F                  
LAMAR          FAIR      78  57  48 VRB3      30.00F                  
SPRINGFIELD      N/A     73  54  51 E12       30.05S                  
$$